#timestamp,LO_Frequency,Hit,StdDev 
1692550815.5,286047002.0,N
1692550835.4,286047002.8,N
1692550855.2,286047001.5,N
1692550875.1,286047001.7,N
1692550876.0,286047001.7,N
1692550895.8,286047001.5,N
1692550915.6,286047001.4,N
1692550935.5,286047001.8,N
1692550955.3,286047002.0,N
1692550975.1,286047001.9,N
1692550995.9,286047004.3,Y
1692551015.7,286047000.1,P
1692551035.6,286046999.9,N
1692551055.4,286047002.7,P
1692551075.2,286047002.3,N
1692551095.1,286047002.6,N
1692551096.0,286047002.6,N
1692551115.8,286046999.7,N
1692551135.7,286046999.9,N
1692551155.5,286047000.4,N
1692551175.3,286047000.0,N
1692551195.2,286047002.6,N
1692551215.9,286046999.7,N
1692551235.7,286047002.3,N
1692551255.6,286046999.7,N
1692551275.4,286047000.1,N
1692551295.3,286046999.9,N
1692551315.1,286047000.1,N
1692551316.0,286047000.1,N
1692551335.8,286047002.2,N
1692551355.7,286047002.8,N
1692551375.5,286047002.4,N
1692551395.3,286047002.8,N
1692551415.2,286047000.2,N
1692551435.0,286047000.3,N
1692551435.9,286047000.3,N
1692551455.8,286046999.7,N
1692551475.6,286047000.3,N
1692551495.4,286046999.9,N
1692551515.3,286047000.0,N
1692551535.1,286046999.9,N
1692551555.8,286047000.4,N
1692551575.7,286047000.9,N
1692551595.5,286047000.8,N
1692551615.4,286046998.2,N
1692551635.2,286047001.1,N
1692551655.0,286047001.0,N
1692551655.9,286047001.0,N
1692551675.8,286046998.1,N
1692551695.6,286047001.2,N
1692551715.4,286047000.8,N
1692551735.3,286047000.7,N
1692551755.1,286047000.7,N
1692551775.9,286046999.7,N
1692551795.7,286047000.4,N
1692551815.5,286047000.8,N
1692551835.4,286046998.5,N
1692551855.2,286046998.3,N
1692551875.0,286046998.6,N
1692551875.9,286046998.6,N
1692551895.8,286046998.5,N
1692551915.6,286046998.3,N
1692551935.5,286046998.3,N
1692551955.3,286046998.5,N
1692551975.1,286046998.1,N
1692551995.9,286046999.4,N
1692552015.7,286046998.4,N
1692552035.5,286047001.1,N
1692552055.4,286046999.1,N
1692552075.2,286046998.8,N
1692552095.1,286047000.8,N
1692552096.0,286047000.8,N
1692552115.8,286046998.6,N
1692552135.6,286046998.9,N
1692552155.5,286046998.5,N
1692552175.3,286046999.5,N
1692552195.1,286046997.2,N
1692552215.9,286046996.6,N
1692552235.7,286046997.0,N
1692552255.6,286046996.5,N
1692552275.4,286046997.3,N
1692552295.2,286046996.7,N
1692552315.1,286046995.2,Y
1692552316.0,286046995.2,P
1692552335.8,286046996.7,N
1692552355.7,286046997.2,N
1692552375.5,286046997.9,N
1692552395.3,286046995.4,Y
1692552415.2,286046998.8,P
1692552435.0,286046998.7,N
1692552435.9,286046998.7,N
1692552455.7,286046998.3,N
1692552475.6,286046998.2,N
1692552495.4,286046998.2,Y
1692552515.3,286047002.8,P
1692552535.1,286047002.3,N
1692552536.0,286047002.3,N
1692552555.8,286047001.5,N
1692552575.7,286047001.6,N
1692552595.5,286047001.5,N
1692552615.3,286047001.6,N
1692552635.2,286047002.3,N
1692552655.0,286047000.6,N
1692552655.9,286047000.6,N
1692552675.8,286047007.0,Y
1692552695.6,286047005.8,P
1692552715.5,286047005.2,N
1692552735.3,286047003.1,N
1692552755.1,286047003.2,N
1692552775.9,286047001.9,N
1692552795.7,286047001.5,N
1692552815.5,286047001.7,N
1692552835.4,286047001.6,N
1692552855.2,286047002.1,N
1692552875.1,286047002.7,N
1692552876.0,286047002.7,N
1692552895.8,286046999.8,N
1692552915.6,286047000.0,N
1692552935.5,286046999.9,N
1692552955.3,286047000.2,N
1692552975.2,286047000.8,N
1692552995.9,286046998.1,N
1692553015.7,286046999.9,N
1692553035.6,286047000.5,N
1692553055.4,286046999.7,N
1692553075.2,286047002.4,N
1692553095.1,286047002.5,N
1692553096.0,286047002.5,N
1692553115.8,286047000.4,N
1692553135.7,286046999.9,N
1692553155.5,286047000.5,N
1692553175.3,286046999.8,N
1692553195.2,286046999.7,N
1692553215.0,286046999.7,N
1692553215.9,286046999.7,N
1692553235.8,286047000.2,N
1692553255.6,286046999.9,N
1692553275.5,286047000.6,N
1692553295.3,286047000.6,N
1692553315.1,286047000.7,N
1692553335.9,286047000.6,N
1692553355.7,286046998.2,N
1692553375.6,286047001.1,N
1692553395.4,286047000.6,N
1692553415.2,286047000.5,N
1692553435.1,286047001.1,N
1692553436.0,286047001.1,N
1692553455.8,286047000.5,N
1692553475.7,286047000.7,N
1692553495.5,286046999.7,N
1692553515.3,286047000.3,N
1692553535.2,286047000.3,N
1692553555.0,286046999.8,N
1692553555.9,286046999.8,N
1692553575.8,286047000.2,N
1692553595.6,286047000.6,N
1692553615.4,286046999.7,N
1692553635.3,286047000.1,N
1692553655.1,286046999.7,N
1692553675.8,286046999.8,N
1692553695.7,286047000.4,N
1692553715.5,286047002.4,Y
1692553735.4,286046999.7,P
1692553755.2,286047001.1,P
1692553775.0,286047000.3,N
1692553775.9,286047000.3,N
1692553795.8,286047000.1,N
1692553815.6,286047000.1,N
1692553835.4,286047001.8,Y
1692553855.3,286047002.2,P
1692553875.1,286047002.6,N
1692553895.9,286047002.7,N
1692553915.7,286047000.2,N
1692553935.5,286047000.3,N
1692553955.4,286047000.2,N
1692553975.2,286047002.5,N
1692553995.0,286047002.4,N
1692553995.9,286047002.4,N
1692554015.8,286047002.1,N
1692554035.6,286047001.4,N
1692554055.5,286047001.9,N
1692554075.3,286047001.8,N
1692554095.1,286047001.7,N
1692554115.9,286047004.2,Y
1692554135.7,286047002.2,P
1692554155.6,286047002.1,P
1692554175.4,286047002.5,P
1692554195.2,286047002.6,Y
1692554215.1,286047000.9,P
1692554216.0,286047000.9,N
1692554235.8,286046998.1,P
1692554255.6,286046998.3,N
1692554275.5,286046998.4,N
1692554295.3,286046998.3,N
1692554315.2,286046998.2,N
1692554335.9,286047000.9,N
1692554355.7,286047001.2,N
1692554375.6,286047000.7,N
1692554395.4,286047000.7,N
